This demonstration page uses our WeatherBlox Daily Observations layout. Learn more.

Left ArrowRight Arrow

41.12389, -100.76542

Hourly Observations for August 19, 2022

Temp ( °F °C ) Dew Point ( °F °C ) Humidity (%) Winds ( mph kmh ) Pressure ( in mb ) Visibility ( mi km ) Precip ( " mm )
12:53 am 00:53 Partly Cloudy 66 18.9 56 13.3 70 70 Calm 29.93 1013 10 16 0.00 0.00
1:53 am 01:53 Mostly Clear 63 17.2 56 13.3 78 78 Calm 29.92 1013 10 16 0.00 0.00
2:53 am 02:53 Clear 61 16.1 56 13.3 83 83 Calm 29.91 1013 10 16 0.00 0.00
3:53 am 03:53 Clear 58 14.4 54 12.2 87 87 NW 5 7 29.90 1013 10 16 0.00 0.00
4:53 am 04:53 Mostly Clear 58 14.4 54 12.2 87 87 Calm 29.89 1012 10 16 0.00 0.00
5:53 am 05:53 Mostly Clear 58 14.4 54 12.2 87 87 Calm 29.89 1012 10 16 0.00 0.00
6:53 am 06:53 Mostly Cloudy 58 14.4 54 12.2 87 87 N 3 6 29.91 1013 10 16 0.00 0.00
7:53 am 07:53 Mostly Sunny 60 15.6 56 13.3 86 86 NNW 5 7 29.92 1013 10 16 0.00 0.00
8:53 am 08:53 Mostly Sunny 65 18.3 57 13.9 76 76 Calm 29.94 1014 10 16 0.00 0.00
9:53 am 09:53 Partly Cloudy 73 22.8 57 13.9 57 57 Calm 29.94 1014 10 16 0.01 0.13
10:53 am 10:53 Sunny 78 25.6 57 13.9 48 48 NNE 9 15 29.94 1014 10 16 0.00 0.00
11:53 am 11:53 Partly Cloudy 80 26.7 56 13.3 44 44 NNE 14 22 29.95 1014 10 16 0.00 0.00
12:53 pm 12:53 Mostly Sunny 83 28.3 55 12.8 38 38 NE 9 15 29.93 1014 10 16 0.00 0.00
1:53 pm 13:53 Partly Cloudy 83 28.3 55 12.8 38 38 NW 8 13 29.92 1013 10 16 0.00 0.00
2:53 pm 14:53 Cloudy 82 27.8 52 11.1 35 35 N 10 17 29.91 1013 10 16 0.00 0.00
3:53 pm 15:53 Mostly Sunny 84 28.9 52 11.1 33 33 NW 10 17 29.91 1013 10 16 0.00 0.00
4:53 pm 16:53 Mostly Sunny 84 28.9 48 8.9 29 29 N 14 22 29.90 1012 10 16 0.00 0.00
5:53 pm 17:53 Sunny 84 28.9 50 10 31 31 NNW 7 11 29.90 1013 10 16 0.00 0.00
6:53 pm 18:53 Mostly Sunny 82 27.8 47 8.3 29 29 N 10 17 29.91 1013 10 16 0.00 0.00
7:53 pm 19:53 Sunny 79 26.1 46 7.8 31 31 N 8 13 29.91 1013 10 16 0.00 0.00
8:53 pm 20:53 Clear 71 21.7 48 8.9 44 44 N 7 11 29.95 1014 10 16 0.00 0.00
9:53 pm 21:53 Clear 68 20 48 8.9 49 49 N 7 11 29.96 1015 10 16 0.00 0.00
10:53 pm 22:53 Clear 63 17.2 49 9.4 60 60 NE 3 6 29.98 1015 10 16 0.00 0.00
11:53 pm 23:53 Clear 63 17.2 49 9.4 60 60 Calm 29.99 1016 10 16 0.00 0.00

Powered by AerisWeather